Date String (YYYY-MM-DD hh:mm:ss) UTC,Instrument flags,Ambient pressure (hPa),Sample flow (lpm),Bypass flow (lpm),Sample temperature (°C),Ambient temperature (°C),ASC tube jacket temperature (°C),LED temperature (°C),Box temperature (°C),Sample RH (%),Span deviation,Mass concentration (μg/m³),Mass concentration (μg/m³),Mass concentration (μg/m³)
DateTimeUTC,F1_M11,P_M11,Q1_M11,Q2_M11,T1_M11,T2_M11,T3_M11,T4_M11,T5_M11,U1_M11,ZSPAN_M11,X2_M11,X0_M11,X1_M11
2022-09-19 05:00:00,,0826.1,4.99,0.00,30.1,28.7,00.0,38.8,31.9,20.9,0000.0,0005.71,0011.39,0004.95
2022-09-19 05:01:00,,0826.1,5.01,0.00,30.1,28.7,00.0,38.8,31.9,20.8,0000.0,0005.67,0011.83,0004.93
2022-09-19 05:02:00,,0825.9,4.99,0.00,30.1,28.8,00.0,38.8,32.0,20.7,-000.0,0005.66,0013.02,0004.92
2022-09-19 05:03:00,,0826.0,5.01,0.00,30.1,28.8,00.0,38.8,32.0,20.6,0000.0,0005.69,0013.44,0004.92
2022-09-19 05:04:00,,0825.9,4.99,0.00,30.1,28.9,00.0,38.8,32.0,20.5,0000.0,0005.68,0013.51,0004.91
2022-09-19 05:05:00,,0826.0,5.00,0.00,30.2,28.9,00.0,38.8,32.0,20.4,-000.1,0005.66,0013.54,0004.92
2022-09-19 05:06:00,,0826.3,5.01,0.00,30.2,29.0,00.0,38.8,32.0,20.3,-000.0,0005.68,0013.84,0004.92
2022-09-19 05:07:00,,0826.1,4.99,0.00,30.2,29.0,00.0,38.9,32.1,20.4,0000.0,0005.67,0013.53,0004.92
2022-09-19 05:08:00,,0825.9,5.01,0.00,30.2,29.0,00.0,38.9,32.1,20.4,0000.0,0005.69,0013.82,0004.91
2022-09-19 05:09:00,,0825.9,4.99,0.00,30.2,29.1,00.0,38.9,32.1,20.3,0000.0,0005.70,0013.74,0004.90
2022-09-19 05:10:00,,0825.7,5.00,0.00,30.3,29.1,00.0,38.9,32.1,20.3,0000.0,0005.67,0013.77,0004.88
2022-09-19 05:11:00,,0825.7,5.00,0.00,30.3,29.1,00.0,38.9,32.2,20.1,0000.0,0005.68,0013.17,0004.89
2022-09-19 05:12:00,,0825.7,5.01,0.00,30.3,29.1,00.0,39.0,32.2,20.1,0000.0,0005.70,0012.65,0004.89
2022-09-19 05:13:00,,0825.7,5.00,0.00,30.4,29.1,00.0,39.0,32.2,20.1,0000.0,0005.72,0011.44,0004.89
2022-09-19 05:14:00,,0825.7,5.00,0.00,30.4,27.9,00.0,39.0,32.2,20.1,0000.0,0005.73,0011.11,0004.90
2022-09-19 05:15:00,,0825.6,5.00,0.00,30.3,26.9,00.0,38.9,32.0,20.2,0000.0,0005.74,0011.98,0004.90
2022-09-19 05:16:00,,0825.7,5.01,0.00,30.2,26.9,00.0,38.9,31.9,20.4,0000.0,0005.75,0012.99,0004.90
2022-09-19 05:17:00,,0825.7,5.01,0.00,30.1,27.1,00.0,38.8,31.7,20.5,0000.0,0005.77,0013.21,0004.91
2022-09-19 05:18:00,,0825.7,5.00,0.00,30.1,27.5,00.0,38.8,31.7,20.6,0000.0,0005.79,0013.20,0004.92
2022-09-19 05:19:00,,0825.7,5.00,0.00,30.0,27.7,00.0,38.8,31.7,20.6,0000.0,0005.78,0012.93,0004.92
2022-09-19 05:20:00,,0825.7,4.99,0.00,30.0,28.0,00.0,38.8,31.7,20.6,0000.0,0005.77,0013.04,0004.93
2022-09-19 05:21:00,,0825.7,5.01,0.00,30.0,28.1,00.0,38.8,31.8,20.6,0000.0,0005.77,0012.68,0004.94
2022-09-19 05:22:00,,0825.8,5.01,0.00,30.0,28.3,00.0,38.8,31.8,20.7,0000.0,0005.75,0012.32,0004.94
2022-09-19 05:23:00,,0825.7,4.99,0.00,30.0,28.4,00.0,38.8,31.8,20.7,0000.0,0005.77,0012.50,0004.95
2022-09-19 05:24:00,,0825.7,5.01,0.00,30.0,28.5,00.0,38.8,31.9,20.7,0000.0,0005.72,0012.89,0004.94
2022-09-19 05:25:00,,0825.7,4.99,0.00,30.0,28.6,00.0,38.8,31.9,20.8,0000.0,0005.69,0013.51,0004.93
2022-09-19 05:26:00,,0825.7,5.01,0.00,30.1,28.7,00.0,38.8,31.9,20.8,0000.0,0005.71,0012.98,0004.94
2022-09-19 05:27:00,,0825.7,4.99,0.00,30.1,28.7,00.0,38.8,31.9,20.8,0000.0,0005.80,0012.51,0004.94
2022-09-19 05:28:00,,0825.7,5.00,0.00,30.1,28.8,00.0,38.8,32.0,20.8,0000.0,0005.84,0012.20,0004.94
2022-09-19 05:29:00,,0825.7,5.00,0.00,30.1,28.8,00.0,38.8,32.0,20.9,0000.0,0005.83,0012.36,0004.95
2022-09-19 05:30:00,,0825.7,4.99,0.00,30.2,28.9,00.0,38.8,32.0,20.8,0000.0,0005.81,0013.09,0004.95
2022-09-19 05:31:00,,0825.6,5.01,0.00,30.2,28.9,00.0,38.9,32.0,20.9,0000.0,0005.84,0013.74,0004.95
2022-09-19 05:32:00,,0825.7,5.00,0.00,30.2,29.0,00.0,38.9,32.0,20.8,0000.0,0005.89,0014.68,0004.98
2022-09-19 05:33:00,,0825.7,5.00,0.00,30.2,29.0,00.0,38.9,32.1,20.8,0000.0,0005.96,0015.31,0004.99
2022-09-19 05:34:00,,0825.7,4.99,0.00,30.2,29.0,00.0,38.9,32.1,20.9,0000.0,0005.98,0015.50,0005.00
2022-09-19 05:35:00,,0825.7,5.01,0.00,30.3,29.1,00.0,38.9,32.1,20.9,0000.0,0006.02,0016.11,0005.02
2022-09-19 05:36:00,,0825.7,5.00,0.00,30.3,29.1,00.0,39.0,32.1,21.0,0000.0,0006.07,0016.73,0005.04
2022-09-19 05:37:00,,0825.7,5.00,0.00,30.3,29.1,00.0,39.0,32.2,21.0,0000.0,0006.08,0016.48,0005.05
2022-09-19 05:38:00,,0825.7,5.01,0.00,30.3,29.1,00.0,39.0,32.2,20.8,0000.0,0006.03,0016.19,0005.06
2022-09-19 05:39:00,,0825.7,4.99,0.00,30.4,29.2,00.0,39.0,32.2,20.7,0000.0,0005.98,0016.59,0005.07
2022-09-19 05:40:00,,0825.9,5.01,0.00,30.4,29.2,00.0,39.0,32.2,20.7,0000.0,0005.99,0016.60,0005.09
2022-09-19 05:41:00,,0825.7,4.99,0.00,30.4,28.2,00.0,39.0,32.2,20.7,0000.0,0006.05,0016.21,0005.10
2022-09-19 05:42:00,,0825.7,5.02,0.00,30.4,27.0,00.0,39.0,32.1,20.8,0000.0,0006.05,0015.27,0005.11
2022-09-19 05:43:00,,0825.7,5.01,0.00,30.3,26.9,00.0,39.0,32.1,20.9,0000.0,0006.07,0014.75,0005.11
2022-09-19 05:44:00,,0825.7,5.00,0.00,30.2,27.1,00.0,38.9,31.9,21.0,0000.0,0006.05,0014.34,0005.12
2022-09-19 05:45:00,,0825.7,5.00,0.00,30.1,27.4,00.0,38.9,31.8,21.0,0000.0,0006.04,0014.39,0005.13
2022-09-19 05:46:00,,0825.7,5.00,0.00,30.1,27.7,00.0,38.9,31.8,21.0,0000.0,0006.02,0013.33,0005.13
2022-09-19 05:47:00,,0826.0,5.00,0.00,30.1,27.9,00.0,38.9,31.8,21.0,0000.0,0005.97,0012.06,0005.13
2022-09-19 05:48:00,,0825.9,5.00,0.00,30.1,28.1,00.0,38.8,31.8,21.2,0000.0,0005.96,0011.87,0005.13
2022-09-19 05:49:00,,0826.1,4.99,0.00,30.1,28.3,00.0,38.8,31.9,21.2,0000.0,0005.98,0012.19,0005.13
2022-09-19 05:50:00,,0826.1,5.00,0.00,30.1,28.4,00.0,38.8,31.9,21.2,0000.0,0005.99,0012.34,0005.15
2022-09-19 05:51:00,,0826.1,5.00,0.00,30.1,28.5,00.0,38.8,31.9,21.4,0000.0,0005.99,0012.92,0005.14
2022-09-19 05:52:00,,0825.8,5.00,0.00,30.1,28.6,00.0,38.8,31.9,21.5,0000.0,0005.97,0013.21,0005.15
2022-09-19 05:53:00,,0825.9,5.01,0.00,30.1,28.6,00.0,38.8,31.9,21.5,0000.0,0005.98,0015.10,0005.16
2022-09-19 05:54:00,,0826.0,4.99,0.00,30.1,28.7,00.0,38.8,31.9,21.5,0000.0,0006.01,0015.33,0005.17
2022-09-19 05:55:00,,0826.0,5.01,0.00,30.1,28.8,00.0,38.8,32.0,21.6,0000.0,0006.02,0015.44,0005.17
2022-09-19 05:56:00,,0825.9,4.99,0.00,30.2,28.8,00.0,38.9,32.0,21.4,0000.0,0006.01,0015.40,0005.18
2022-09-19 05:57:00,,0826.1,5.01,0.00,30.2,28.9,00.0,38.9,32.0,21.4,0000.0,0006.03,0015.59,0005.18
2022-09-19 05:58:00,,0826.0,5.00,0.00,30.2,28.9,00.0,38.9,32.0,21.4,0000.0,0006.05,0015.90,0005.20
2022-09-19 05:59:00,,0825.9,5.00,0.00,30.2,29.0,00.0,38.9,32.0,21.4,0000.0,0006.09,0016.16,0005.21
